Notices

What's New in latest Release from April 7th, 2021:

- Updated Glossary, including Speed of Maximum Gust, and Total Hourly Precipitation

- Updated national and regional climate services offices contacts and prices information

- Addition of station inventory lists for 1981-2010, 1971-2000, and 1961-1990 Normals.

If you haven't already, please take our survey and provide feedback about our website: https://eccc.sondage-survey.ca/f/LanguageSelection.aspx?s=442ca660-fcf1-47c0-95a9-59707d6fd709

Hourly Data Report for November 08, 2019

VICTORIA UNIVERSITY CS
BRITISH COLUMBIA
Current Station Operator: ECCC - MSC

48°27'25.200" N
123°18'16.600" W
60.10 m
1018598
71783
WYJ

Download Data

Hourly Data (November 2019)
Hourly Data Report for November 8, 2019
TIME
LST
Temp Definition
°C
Dew Point Definition
°C
Rel Hum Definition
%
Precip. Amount Definition
mm

Wind Dir Definition
10's deg

Wind Spd Definition
km/h
Visibility Definition
km
Stn Press Definition
kPa
Hmdx Definition


Wind Chill Definition


Weather Definition


00:00 7.5 4.5 82 0.0 35 7   101.42     LegendNANA
01:00 7.6 4.1 78 0.0 35 7   101.42     LegendNANA
02:00 7.7 3.9 77 0.0 35 6   101.41     LegendNANA
03:00 7.6 4.2 79 0.0 34 6   101.38     LegendNANA
04:00 7.3 4.5 82 0.0 33 5   101.36     LegendNANA
05:00 7.5 4.4 81 0.0 2 8   101.32     LegendNANA
06:00 6.7 5.1 90 0.0 1 4   101.31     LegendNANA
07:00 6.4 4.9 90 0.0 35 5   101.33     LegendNANA
08:00 6.4 5.5 94 0.0 1 3   101.37     LegendNANA
09:00 7.3 6.0 92 0.0 1 3   101.39     LegendNANA
10:00 9.0 6.6 85 0.0 2 5   101.36     LegendNANA
11:00 9.7 7.1 84 0.0 7 3   101.37     LegendNANA
12:00 9.4 6.7 83 0.0 10 4   101.35     LegendNANA
13:00 10.1 7.2 83 0.0 11 2   101.34     LegendNANA
14:00 9.1 6.6 84 0.0 17 4   101.36     LegendNANA
15:00 8.3 6.3 88 0.0 17 3   101.27     LegendNANA
16:00 8.3 6.4 88 0.0 16 2   101.26     LegendNANA
17:00 8.0 6.1 88 0.0 21 4   101.24     LegendNANA
18:00 7.4 6.1 92 0.0 14 1   101.22     LegendNANA
19:00 7.0 6.3 96 0.0 1 1   101.26     LegendNANA
20:00 7.5 7.0 97 0.0 0 1   101.26     LegendNANA
21:00 8.1 7.0 93 0.0 32 4   101.33     LegendNANA
22:00 7.7 6.8 94 0.0   0   101.38     LegendNANA
23:00 8.5 7.2 92 0.0 12 1   101.39     LegendNANA

Notes on Data Quality.

Legend

  • E = Estimated
  • M = Missing
  • NA = Not Available*
  • [empty] = Indicates an unobserved value
Date modified: